Location: Chacón
(10.5789°N, 66.9317°W)
Time: 14:21:13
(UTC+00:00)

Cosmos 1727 Rocket - Pass Details

Date: 14 August 2024
Orbit: 960 x 997 km, 82.9° (Epoch: 08 September)

Event Time Altitude Azimuth Distance (km) Brightness Sun altitude
Rises 22:56:49 0° 22° (NNE) 3,637 6.9 -3.3°
Reaches altitude 10° 23:00:03 10° 38° (NE) 2,688 6.1 -4.1°
Maximum altitude 23:04:24 20° 84° (E) 2,049 5.2 -5.1°
Drops below altitude 10° 23:08:44 10° 129° (SE) 2,687 5.7 -6.1°
Sets 23:11:55 0° 145° (SE) 3,634 6.5 -6.9°
